TimeAKDT,TemperatureF,Dew PointF,Humidity,Sea Level PressureIn,VisibilityMPH,Wind Direction,Wind SpeedMPH,Gust SpeedMPH,PrecipitationIn,Events,Conditions,WindDirDegrees,DateUTC
12:53 AM,21.9,16.0,78,29.84,10.0,East,4.6,-,N/A,,Partly Cloudy,80,2012-10-19 08:53:00
1:53 AM,23.0,16.0,74,29.83,10.0,Calm,Calm,-,N/A,,Partly Cloudy,0,2012-10-19 09:53:00
2:53 AM,23.0,15.1,72,29.84,10.0,Calm,Calm,-,N/A,,Partly Cloudy,0,2012-10-19 10:53:00
3:53 AM,21.0,15.1,78,29.85,10.0,Calm,Calm,-,N/A,,Partly Cloudy,0,2012-10-19 11:53:00
4:53 AM,19.0,14.0,81,29.87,10.0,Calm,Calm,-,N/A,,Partly Cloudy,0,2012-10-19 12:53:00
5:53 AM,19.0,15.1,85,29.88,10.0,East,3.5,-,N/A,,Partly Cloudy,100,2012-10-19 13:53:00
6:53 AM,19.0,14.0,81,29.90,10.0,East,3.5,-,N/A,,Clear,80,2012-10-19 14:53:00
7:53 AM,21.9,16.0,78,29.91,10.0,Calm,Calm,-,N/A,,Clear,0,2012-10-19 15:53:00
8:53 AM,21.0,14.0,74,29.92,10.0,Calm,Calm,-,N/A,,Clear,0,2012-10-19 16:53:00
9:53 AM,21.9,16.0,78,29.94,10.0,Calm,Calm,-,N/A,,Clear,0,2012-10-19 17:53:00
10:53 AM,28.9,18.0,64,29.95,10.0,Calm,Calm,-,N/A,,Clear,0,2012-10-19 18:53:00
11:53 AM,30.9,17.1,57,29.96,10.0,NE,4.6,-,N/A,,Clear,40,2012-10-19 19:53:00
12:53 PM,33.1,17.1,52,29.97,10.0,North,-9999.0,-,N/A,,Clear,0,2012-10-19 20:53:00
1:53 PM,35.1,16.0,46,29.97,10.0,Calm,Calm,-,N/A,,Partly Cloudy,0,2012-10-19 21:53:00
3:24 PM,37.4,15.8,41,29.96,10.0,Calm,Calm,-,N/A,,Clear,0,2012-10-19 23:24:00
3:25 PM,37.4,15.8,41,29.96,10.0,Calm,Calm,-,N/A,,Clear,0,2012-10-19 23:25:00
3:53 PM,37.0,18.0,46,29.97,10.0,SSW,5.8,-,N/A,,Clear,200,2012-10-19 23:53:00
4:53 PM,36.0,19.0,50,29.97,10.0,South,5.8,-,N/A,,Clear,190,2012-10-20 00:53:00
5:53 PM,34.0,18.0,52,29.99,10.0,SSW,5.8,-,N/A,,Clear,200,2012-10-20 01:53:00
6:53 PM,32.0,18.0,56,30.00,10.0,Calm,Calm,-,N/A,,Clear,0,2012-10-20 02:53:00
7:53 PM,30.9,18.0,59,30.02,10.0,Calm,Calm,-,N/A,,Clear,0,2012-10-20 03:53:00
8:53 PM,28.9,17.1,61,30.03,10.0,Calm,Calm,-,N/A,,Clear,0,2012-10-20 04:53:00
9:53 PM,34.0,14.0,44,30.04,10.0,NNW,10.4,-,N/A,,Clear,340,2012-10-20 05:53:00
10:53 PM,32.0,14.0,48,30.06,10.0,NNW,4.6,-,N/A,,Clear,340,2012-10-20 06:53:00
11:53 PM,32.0,12.9,45,30.07,10.0,NNW,13.8,-,N/A,,Clear,340,2012-10-20 07:53:00